QPF
0.00 0.00 0.00 0.00 0.00 0.00 0.00 0.00 0.00 0.00 0.00 0.00 0.00 0.00 0.00 0.00 0.00 0.00 0.00 0.00 0.00 0.00 0.00 0.00 0.00 0.00 0.00 0.00 0.00 0.00 0.00 0.00 0.00 0.00 0.00 0.00 0.00 0.00 0.00 0.00 0.00 0.00 0.00 0.00 0.00
0.00 0.00 0.00 0.00 0.00 0.00 0.00 0.00 0.00 0.00 0.00 0.00 0.00 0.00 0.00 0.00 0.00 0.00 0.00 0.00 0.00 0.00 0.00 0.00 0.00 0.00 0.00 0.00 0.00 0.00 0.00 0.00 0.00 0.00 0.00 0.00 0.00 0.00 0.00 0.00 0.00 0.00 0.00 0.00 0.00
0.00 0.00 0.00 0.00 0.00 0.00 0.00 0.00 0.00 0.00 0.00 0.00 0.00 0.00 0.00 0.00 0.00 0.00 0.00 0.00 0.00 0.00 0.00 0.00 0.00 0.00 0.00 0.00 0.00 0.00 0.00 0.00 0.00 0.00 0.00 0.00 0.00 0.00 0.00 0.00 0.00 0.00 0.00 0.00 0.00
0.00 0.00 0.00 0.00 0.00 0.00 0.00 0.00 0.00 0.00 0.00 0.00 0.00 0.00 0.00 0.00 0.00 0.00 0.00 0.00 0.00 0.00 0.00 0.00 0.00 0.00 0.00 0.00 0.00 0.00 0.00 0.00 0.00 0.00 0.00 0.00 0.00 0.00 0.00 0.00 0.00 0.00 0.00 0.00 0.00
0.00 0.00 0.00 0.00 0.00 0.00 0.00 0.00 0.00 0.00 0.00 0.00 0.00 0.00 0.00 0.00 0.00 0.00 0.00 0.00 0.00 0.00 0.00 0.00 0.00 0.00 0.00 0.00 0.00 0.00 0.00 0.00 0.00 0.00 0.00 0.00 0.00 0.00 0.00 0.00 0.00 0.00 0.00 0.00 0.00
0.00 0.00 0.00 0.00 0.00 0.00 0.00 0.00 0.00 0.00 0.00 0.00 0.00 0.00 0.00 0.00 0.00 0.00 0.00 0.00 0.00 0.00 0.00 0.00 0.00 0.00 0.00 0.00 0.00 0.00 0.00 0.00 0.00 0.00 0.00 0.00 0.00 0.00 0.00 0.00 0.00 0.00 0.00 0.00 0.00
0.00 0.00 0.00 0.00 0.00 0.00 0.00 0.00 0.00 0.00 0.00 0.00 0.00 0.00 0.00 0.00 0.00 0.00 0.00 0.00 0.00 0.00 0.00 0.00 0.00 0.00 0.00 0.00 0.00 0.00 0.00 0.00 0.00 0.00 0.00 0.00 0.00 0.00 0.00 0.00 0.00 0.00 0.00 0.00 0.00
0.00 0.00 0.00 0.00 0.00 0.00 0.00 0.00 0.00 0.00 0.00 0.00 0.00 0.00 0.00 0.00 0.00 0.00 0.00 0.00 0.00 0.00 0.00 0.00 0.00 0.00 0.00 0.00 0.00 0.00 0.00 0.00 0.00 0.00 0.00 0.00 0.00 0.00 0.00 0.00 0.00 0.00 0.00 0.00 0.00
0.00 0.00 0.00 0.00 0.00 0.00 0.00 0.00 0.00 0.00 0.00 0.00 0.00 0.00 0.00 0.00 0.00 0.00 0.00 0.00 0.00 0.00 0.00 0.00 0.00 0.00 0.00 0.00 0.00 0.00 0.00 0.00 0.00 0.00 0.00 0.00 0.00 0.00 0.00 0.00 0.00 0.00 0.00 0.00 0.00
0.00 0.00 0.00 0.00 0.00 0.00 0.00 0.00 0.00 0.00 0.00 0.00 0.00 0.00 0.00 0.00 0.00 0.00 0.00 0.00 0.00 0.00 0.00 0.00 0.00 0.00 0.00 0.00 0.00 0.00 0.00 0.00 0.00 0.00 0.00 0.00 0.00 0.00 0.00 0.00 0.00 0.00 0.00 0.00 0.00
0.00 0.00 0.00 0.00 0.00 0.00 0.00 0.00 0.00 0.00 0.00 0.00 0.00 0.00 0.00 0.00 0.00 0.00 0.00 0.00 0.00 0.00 0.00 0.00 0.00 0.00 0.00 0.00 0.00 0.00 0.00 0.00 0.00 0.00 0.00 0.00 0.00 0.00 0.00 0.00 0.00 0.00 0.00 0.00 0.00
0.00 0.00 0.00 0.00 0.00 0.00 0.00 0.00 0.00 0.00 0.00 0.00 0.00 0.00 0.00 0.00 0.00 0.00 0.00 0.00 0.00 0.00 0.00 0.00 0.00 0.00 0.00 0.00 0.00 0.00 0.00 0.00 0.00 0.00 0.00 0.00 0.00 0.00 0.00 0.00 0.00 0.00 0.00 0.00 0.00
0.00 0.00 0.00 0.00 0.00 0.00 0.00 0.00 0.00 0.00 0.00 0.00 0.00 0.00 0.00 0.00 0.00 0.00 0.00 0.00 0.00 0.00 0.00 0.00 0.00 0.00 0.00 0.00 0.00 0.00 0.00 0.00 0.00 0.00 0.00 0.00 0.00 0.00 0.00 0.00 0.00 0.00 0.00 0.00 0.00
0.00 0.00 0.00 0.00 0.00 0.00 0.00 0.00 0.00 0.00 0.00 0.00 0.00 0.00 0.00 0.00 0.00 0.00 0.00 0.00 0.00 0.00 0.00 0.00 0.00 0.00 0.00 0.00 0.00 0.00 0.00 0.00 0.00 0.00 0.00 0.00 0.00 0.00 0.00 0.00 0.00 0.00 0.00 0.00 0.00
0.01 0.00 0.00 0.00 0.00 0.00 0.00 0.00 0.00 0.00 0.00 0.00 0.00 0.00 0.00 0.00 0.00 0.00 0.00 0.00 0.00 0.00 0.00 0.00 0.00 0.00 0.00 0.00 0.00 0.00 0.00 0.00 0.00 0.00 0.00 0.00 0.00 0.00 0.00 0.00 0.00 0.00 0.00 0.00 0.00
0.01 0.00 0.00 0.00 0.00 0.00 0.00 0.00 0.00 0.00 0.00 0.00 0.00 0.00 0.00 0.00 0.00 0.00 0.00 0.00 0.00 0.00 0.00 0.00 0.00 0.00 0.00 0.00 0.00 0.00 0.00 0.00 0.00 0.00 0.00 0.00 0.00 0.00 0.00 0.00 0.00 0.00 0.00 0.00 0.00
0.01 0.01 0.00 0.00 0.00 0.00 0.00 0.00 0.00 0.00 0.00 0.00 0.00 0.00 0.00 0.00 0.00 0.00 0.00 0.00 0.00 0.00 0.00 0.00 0.00 0.00 0.00 0.00 0.00 0.00 0.00 0.00 0.00 0.00 0.00 0.00 0.00 0.00 0.00 0.00 0.00 0.00 0.00 0.00 0.00
0.00 0.00 0.00 0.00 0.00 0.00 0.00 0.00 0.00 0.00 0.00 0.00 0.00 0.00 0.00 0.00 0.00 0.00 0.00 0.00 0.00 0.00 0.00 0.00 0.00 0.00 0.00 0.00 0.00 0.00 0.00 0.00 0.00 0.00 0.00 0.00 0.00 0.00 0.00 0.00 0.00 0.00 0.00 0.00 0.00
0.00 0.00 0.00 0.00 0.00 0.00 0.00 0.00 0.00 0.00 0.00 0.00 0.00 0.00 0.00 0.00 0.00 0.00 0.00 0.00 0.00 0.00 0.00 0.00 0.00 0.00 0.00 0.00 0.00 0.00 0.00 0.00 0.00 0.00 0.00 0.00 0.00 0.00 0.00 0.00 0.00 0.00 0.00 0.00 0.00
0.00 0.00 0.00 0.00 0.00 0.00 0.01 0.00 0.00 0.00 0.00 0.00 0.00 0.00 0.00 0.00 0.00 0.00 0.00 0.00 0.00 0.00 0.00 0.00 0.00 0.00 0.00 0.00 0.00 0.00 0.00 0.00 0.00 0.01 0.00 0.00 0.00 0.00 0.00 0.00 0.00 0.00 0.00 0.00 0.00
0.00 0.00 0.00 0.00 0.00 0.01 0.01 0.00 0.00 0.00 0.00 0.00 0.00 0.00 0.00 0.00 0.00 0.00 0.00 0.00 0.00 0.00 0.00 0.00 0.00 0.00 0.00 0.00 0.00 0.00 0.00 0.00 0.00 0.00 0.01 0.00 0.00 0.00 0.00 0.00 0.00 0.00 0.00 0.00 0.00
0.00 0.00 0.00 0.00 0.01 0.01 0.01 0.00 0.00 0.00 0.00 0.00 0.00 0.00 0.00 0.00 0.00 0.00 0.00 0.00 0.00 0.00 0.00 0.00 0.00 0.00 0.00 0.00 0.00 0.00 0.00 0.00 0.00 0.00 0.00 0.00 0.00 0.00 0.00 0.00 0.00 0.00 0.00 0.00 0.00
0.00 0.00 0.00 0.00 0.01 0.00 0.00 0.00 0.00 0.00 0.00 0.00 0.00 0.00 0.00 0.00 0.00 0.00 0.00 0.00 0.00 0.00 0.00 0.00 0.00 0.00 0.00 0.00 0.00 0.00 0.00 0.00 0.00 0.00 0.00 0.00 0.00 0.00 0.00 0.00 0.00 0.00 0.00 0.00 0.00
0.00 0.00 0.00 0.00 0.00 0.00 0.00 0.00 0.00 0.00 0.00 0.00 0.00 0.00 0.00 0.00 0.00 0.00 0.00 0.00 0.00 0.00 0.00 0.00 0.00 0.00 0.00 0.00 0.00 0.00 0.00 0.00 0.00 0.00 0.00 0.00 0.00 0.00 0.00 0.00 0.00 0.00 0.00 0.00 0.00
0.00 0.00 0.00 0.00 0.00 0.00 0.00 0.00 0.00 0.00 0.00 0.00 0.00 0.00 0.00 0.00 0.00 0.00 0.00 0.00 0.00 0.00 0.00 0.00 0.00 0.00 0.00 0.00 0.00 0.00 0.00 0.00 0.00 0.00 0.00 0.00 0.00 0.00 0.00 0.00 0.00 0.00 0.00 0.00 0.00
0.00 0.00 0.00 0.00 0.00 0.00 0.00 0.00 0.00 0.00 0.00 0.00 0.00 0.00 0.00 0.00 0.00 0.00 0.00 0.00 0.00 0.00 0.00 0.00 0.00 0.00 0.00 0.00 0.00 0.00 0.00 0.00 0.00 0.00 0.00 0.00 0.00 0.00 0.00 0.00 0.00 0.00 0.00 0.00 0.00
0.00 0.00 0.00 0.00 0.00 0.00 0.00 0.00 0.00 0.00 0.00 0.00 0.00 0.00 0.00 0.00 0.00 0.00 0.00 0.00 0.00 0.00 0.00 0.00 0.00 0.00 0.00 0.00 0.00 0.00 0.00 0.00 0.00 0.00 0.00 0.00 0.00 0.00 0.00 0.00 0.00 0.00 0.00 0.00 0.00
MSLP
1016.86 1016.85 1017.07 1017.01 1017.15 1017.18 1017.10 1017.26 1017.15 1017.19 1016.78 1016.94 1016.74 1016.40 1015.85 1015.25 1014.65 1014.19 1013.35 1011.28 1011.21 1011.12 1011.43 1011.58 1011.68 1012.02 1012.43 1012.90 1013.15 1013.66 1014.57 1014.61 1013.41 1012.62 1011.13 1010.17 1009.89 1009.40 1008.81 1008.69 1008.32 1007.87 1007.70 1007.20 1006.96
1016.31 1016.26 1016.53 1016.81 1016.88 1016.96 1016.89 1016.96 1017.11 1016.93 1016.90 1016.61 1016.37 1016.20 1015.79 1015.22 1014.44 1013.23 1011.00 1010.70 1010.98 1011.02 1011.27 1011.56 1011.79 1012.07 1012.78 1013.12 1013.26 1013.58 1014.01 1013.29 1012.21 1011.34 1010.80 1010.18 1010.03 1009.64 1009.42 1008.98 1008.33 1007.78 1007.37 1007.22 1007.08
1015.67 1015.92 1015.93 1016.18 1016.73 1016.70 1016.63 1016.74 1016.76 1016.84 1016.78 1016.54 1016.04 1015.65 1015.59 1015.07 1014.27 1011.27 1010.15 1010.50 1010.84 1011.07 1011.41 1011.45 1011.61 1011.95 1012.65 1013.02 1013.04 1013.04 1012.86 1012.29 1011.47 1010.89 1010.74 1010.38 1009.76 1009.62 1009.34 1009.19 1008.68 1008.23 1007.46 1006.98 1007.02
1015.22 1015.33 1015.66 1015.92 1016.12 1016.41 1016.36 1016.32 1016.55 1016.70 1016.25 1016.51 1016.13 1015.66 1015.10 1015.05 1013.68 1010.60 1010.36 1010.39 1010.80 1011.10 1011.45 1011.73 1011.96 1012.26 1012.64 1012.64 1012.25 1012.54 1011.96 1011.58 1010.94 1010.54 1010.49 1010.35 1009.74 1009.30 1009.15 1008.84 1008.17 1007.72 1007.66 1007.54 1007.25
1014.62 1015.12 1015.20 1015.36 1015.90 1016.01 1016.11 1016.08 1016.12 1016.45 1016.33 1016.25 1016.02 1015.70 1015.13 1014.65 1012.48 1010.73 1010.59 1010.54 1010.97 1011.12 1011.40 1011.62 1012.02 1012.21 1012.15 1012.06 1011.93 1011.83 1011.46 1010.89 1010.37 1010.21 1010.03 1009.78 1009.75 1009.28 1008.63 1008.19 1007.80 1007.61 1007.39 1007.41 1007.28
1013.68 1014.27 1014.77 1015.01 1015.37 1015.78 1015.86 1016.01 1016.00 1015.93 1016.31 1016.12 1015.81 1015.99 1015.49 1013.69 1010.37 1010.77 1010.60 1010.79 1010.88 1011.08 1011.17 1011.38 1011.26 1011.28 1011.52 1011.51 1011.58 1010.93 1010.94 1010.64 1010.16 1009.75 1009.46 1009.34 1009.03 1009.16 1008.31 1007.49 1007.80 1007.76 1007.65 1007.28 1007.23
1012.99 1013.48 1013.76 1014.41 1014.96 1015.37 1015.57 1015.67 1015.90 1015.84 1015.89 1015.94 1015.83 1015.70 1015.30 1011.45 1009.92 1009.91 1010.61 1010.64 1010.53 1010.66 1010.74 1010.85 1010.84 1011.08 1011.25 1011.18 1010.87 1010.85 1010.85 1010.57 1009.98 1009.43 1009.23 1008.81 1008.80 1008.54 1007.78 1007.74 1007.69 1007.74 1007.64 1007.36 1007.04
1012.20 1012.61 1013.34 1014.00 1014.55 1014.89 1015.40 1015.65 1015.73 1015.60 1015.50 1015.76 1015.76 1015.62 1013.82 1010.63 1010.29 1010.29 1009.99 1010.08 1010.20 1010.50 1010.61 1010.51 1010.70 1011.07 1011.12 1011.01 1010.99 1011.13 1011.04 1010.86 1009.89 1009.39 1008.93 1009.05 1008.51 1008.00 1007.53 1007.90 1007.98 1007.51 1007.22 1006.97 1006.69
1011.61 1012.18 1012.81 1013.38 1014.39 1014.63 1015.21 1015.44 1015.36 1015.16 1015.22 1015.54 1015.70 1015.35 1012.48 1010.39 1010.20 1008.85 1009.23 1009.17 1009.31 1010.03 1010.35 1010.48 1010.75 1011.08 1011.31 1011.67 1012.01 1011.82 1011.77 1011.37 1010.47 1009.52 1009.43 1009.27 1008.84 1008.40 1007.80 1007.85 1008.05 1007.75 1007.22 1006.80 1006.32
1010.84 1011.65 1012.48 1013.03 1014.21 1014.47 1015.01 1015.00 1014.98 1014.93 1014.85 1015.32 1015.24 1015.29 1011.62 1009.86 1008.85 1008.41 1008.62 1008.82 1008.97 1009.61 1010.34 1010.89 1011.13 1011.36 1011.90 1012.28 1012.36 1012.24 1012.17 1011.86 1011.35 1010.22 1009.72 1009.55 1008.98 1008.71 1008.13 1008.04 1007.68 1007.57 1007.12 1006.62 1006.18
1009.58 1010.74 1011.72 1012.71 1013.87 1014.56 1015.18 1014.84 1015.41 1014.73 1014.63 1012.93 1012.62 1011.73 1010.39 1009.30 1008.69 1008.27 1008.06 1008.62 1008.80 1009.32 1010.31 1010.93 1011.48 1011.62 1011.59 1012.01 1012.12 1012.11 1012.11 1011.97 1011.54 1010.35 1010.30 1009.23 1008.50 1008.44 1007.88 1007.73 1007.47 1007.01 1006.87 1006.46 1006.05
1009.10 1010.24 1011.11 1012.30 1013.50 1014.00 1014.64 1015.02 1013.05 1013.59 1013.01 1012.00 1011.49 1010.84 1010.08 1009.81 1009.34 1008.19 1007.74 1008.34 1009.01 1009.55 1010.17 1011.17 1011.16 1010.90 1011.31 1011.78 1012.02 1012.08 1012.01 1011.79 1011.14 1010.13 1010.35 1009.40 1007.83 1007.64 1007.36 1006.87 1006.75 1006.74 1006.82 1006.72 1006.71
1008.48 1009.72 1010.74 1012.17 1013.25 1014.01 1014.31 1014.16 1012.26 1013.05 1013.06 1010.64 1009.84 1009.08 1008.91 1009.54 1009.20 1008.14 1007.82 1007.95 1008.61 1009.57 1010.09 1010.50 1010.39 1010.35 1010.99 1011.42 1011.73 1011.41 1011.61 1011.41 1011.00 1010.29 1009.84 1009.36 1007.33 1006.77 1006.39 1006.33 1006.48 1006.72 1007.32 1007.84 1008.00
1008.32 1009.14 1010.77 1011.98 1013.56 1013.41 1013.92 1012.60 1012.40 1013.48 1012.65 1009.63 1008.64 1007.13 1007.36 1008.09 1007.86 1007.17 1007.30 1007.54 1008.51 1009.09 1009.94 1010.22 1009.66 1009.95 1010.47 1010.76 1010.80 1010.82 1010.34 1010.40 1010.60 1010.88 1010.75 1009.82 1008.04 1006.83 1006.20 1006.39 1006.50 1007.56 1008.25 1008.60 1008.55
1007.63 1009.18 1010.50 1011.38 1012.51 1012.75 1012.71 1011.68 1012.47 1013.32 1011.97 1007.71 1006.86 1005.86 1006.19 1006.76 1006.08 1006.18 1006.56 1007.08 1007.74 1008.65 1009.43 1009.46 1009.29 1009.44 1009.80 1009.64 1009.59 1009.66 1009.37 1009.89 1010.22 1010.61 1010.55 1010.34 1010.13 1005.79 1005.76 1006.73 1007.60 1008.27 1008.58 1008.73 1008.82
1007.48 1008.83 1010.41 1011.94 1012.23 1011.95 1012.30 1012.23 1012.83 1013.53 1009.85 1006.78 1006.16 1006.01 1006.46 1006.32 1005.97 1005.99 1006.48 1006.96 1007.36 1008.41 1008.91 1009.03 1008.87 1008.92 1008.84 1008.85 1009.07 1009.12 1009.36 1009.77 1010.24 1010.73 1010.52 1009.63 1009.65 1006.46 1006.80 1007.40 1007.71 1008.11 1008.62 1009.04 1009.12
1007.46 1009.01 1010.37 1011.34 1011.66 1011.78 1012.11 1013.04 1013.46 1011.64 1007.70 1006.73 1006.08 1006.15 1006.12 1006.28 1006.38 1006.42 1007.03 1007.86 1008.27 1008.93 1009.37 1009.38 1009.28 1009.14 1008.98 1009.06 1009.28 1009.57 1009.92 1010.55 1011.12 1011.26 1010.13 1009.50 1009.36 1007.35 1007.11 1007.33 1007.79 1008.33 1008.95 1009.38 1009.58
1008.28 1009.32 1010.61 1010.97 1011.87 1012.12 1012.36 1012.68 1011.82 1009.29 1007.62 1006.52 1005.88 1006.27 1006.77 1006.86 1007.02 1007.15 1008.03 1009.00 1009.24 1009.38 1010.09 1010.04 1010.32 1009.96 1009.72 1009.94 1010.13 1010.14 1010.52 1011.16 1011.35 1011.15 1010.52 1009.61 1008.75 1007.84 1007.65 1007.91 1008.11 1008.83 1009.55 1010.05 1010.38
1008.54 1010.27 1010.94 1011.29 1011.30 1011.59 1012.03 1011.66 1009.79 1008.74 1007.53 1006.81 1006.61 1006.98 1007.41 1007.50 1007.53 1007.91 1008.94 1009.85 1010.20 1010.29 1010.50 1010.81 1010.86 1010.64 1010.47 1010.40 1010.54 1010.62 1011.17 1011.61 1011.87 1011.60 1011.34 1009.68 1008.62 1008.16 1008.20 1008.52 1008.87 1009.64 1010.21 1010.59 1010.84
1009.24 1010.81 1010.95 1010.70 1011.08 1011.40 1011.75 1010.44 1009.31 1008.47 1007.99 1007.32 1007.16 1007.72 1008.12 1008.39 1008.52 1008.66 1009.54 1010.57 1010.77 1010.78 1010.68 1011.48 1011.70 1011.52 1011.16 1010.83 1011.01 1011.30 1011.99 1012.39 1012.77 1012.68 1011.81 1010.03 1009.35 1008.94 1009.18 1009.55 1009.80 1010.49 1011.03 1011.45 1011.58
1009.31 1010.43 1011.19 1010.72 1011.01 1011.34 1010.92 1010.17 1009.21 1008.68 1007.99 1008.05 1008.04 1008.65 1008.96 1009.28 1009.48 1009.80 1010.39 1010.99 1010.99 1011.39 1011.40 1011.95 1012.33 1012.90 1012.01 1011.68 1012.04 1012.59 1012.78 1013.13 1013.42 1013.49 1012.84 1011.58 1010.34 1009.80 1010.31 1010.72 1011.05 1011.52 1012.07 1012.25 1012.44
1008.94 1009.99 1010.58 1010.62 1011.43 1011.15 1010.52 1009.66 1009.25 1008.62 1007.92 1008.86 1008.84 1009.20 1009.62 1010.11 1010.20 1010.40 1010.81 1011.08 1011.29 1011.56 1012.22 1012.52 1013.09 1013.42 1013.01 1012.57 1012.63 1013.22 1013.74 1014.11 1014.55 1014.41 1013.89 1012.87 1011.03 1010.40 1010.80 1011.68 1012.14 1012.80 1013.32 1013.14 1013.01
1009.27 1010.26 1011.07 1011.03 1010.81 1011.05 1010.27 1009.49 1009.08 1009.00 1009.23 1009.59 1009.78 1010.00 1010.27 1010.60 1011.05 1011.13 1011.42 1011.85 1011.79 1012.27 1012.61 1013.10 1013.79 1014.11 1013.96 1014.07 1013.87 1014.06 1014.29 1014.69 1015.17 1015.19 1014.43 1013.81 1011.48 1011.10 1011.47 1012.27 1013.13 1013.87 1014.35 1014.27 1013.78
1009.14 1010.54 1011.24 1011.23 1010.71 1010.34 1009.91 1009.69 1009.72 1009.75 1010.07 1010.18 1010.29 1010.29 1010.65 1011.27 1011.56 1011.90 1012.15 1012.55 1012.52 1012.68 1013.10 1013.24 1013.97 1014.27 1014.48 1014.36 1014.49 1014.62 1014.60 1014.95 1015.53 1015.48 1014.37 1013.17 1012.17 1011.57 1012.46 1013.23 1014.07 1014.30 1015.25 1015.26 1014.64
1008.92 1009.55 1009.62 1010.77 1010.29 1009.94 1009.69 1009.69 1009.87 1010.22 1010.43 1010.52 1011.03 1011.16 1011.46 1012.01 1012.30 1012.55 1012.83 1013.04 1013.24 1013.38 1013.73 1014.12 1014.87 1014.98 1014.87 1014.76 1014.62 1014.51 1014.45 1014.57 1014.79 1014.42 1014.21 1013.00 1012.72 1012.49 1013.41 1014.25 1014.93 1015.08 1015.79 1015.89 1015.26
1008.69 1008.70 1009.24 1009.51 1009.54 1009.77 1009.79 1010.10 1010.34 1010.73 1010.89 1011.28 1011.58 1012.06 1012.20 1012.53 1012.80 1013.06 1013.35 1013.72 1013.86 1014.12 1014.61 1015.17 1015.72 1015.59 1015.29 1015.14 1014.95 1014.19 1013.69 1013.55 1013.52 1013.30 1013.09 1012.87 1012.27 1012.75 1014.17 1015.07 1015.59 1016.14 1016.29 1016.48 1016.19
1008.50 1008.42 1008.43 1009.74 1009.77 1009.76 1010.17 1010.42 1010.79 1010.96 1011.81 1011.79 1012.19 1012.65 1012.90 1013.16 1013.15 1013.22 1013.36 1013.69 1014.00 1014.51 1015.23 1015.81 1016.11 1016.50 1016.09 1015.54 1015.03 1013.94 1012.78 1012.65 1012.26 1011.76 1011.91 1012.02 1011.74 1013.25 1014.76 1015.70 1016.23 1016.71 1016.85 1017.39 1017.21
Thickness
5632 5631 5629 5630 5628 5628 5629 5626 5627 5627 5631 5630 5632 5635 5640 5647 5652 5655 5661 5681 5680 5682 5679 5679 5679 5676 5672 5669 5667 5661 5640 5633 5657 5659 5671 5686 5678 5688 5695 5690 5694 5703 5705 5713 5720
5629 5631 5627 5624 5624 5621 5623 5623 5620 5622 5622 5624 5629 5629 5632 5638 5645 5650 5674 5676 5675 5674 5673 5669 5666 5665 5656 5658 5654 5650 5630 5645 5660 5669 5670 5673 5672 5676 5676 5677 5687 5695 5703 5708 5712
5625 5622 5624 5622 5616 5618 5619 5618 5617 5615 5615 5617 5621 5626 5626 5632 5639 5663 5670 5669 5668 5666 5663 5663 5661 5657 5651 5648 5647 5644 5641 5651 5663 5666 5664 5661 5665 5670 5670 5665 5675 5678 5693 5701 5705
5618 5618 5616 5614 5614 5611 5611 5613 5610 5609 5614 5610 5612 5617 5622 5624 5632 5658 5661 5662 5658 5656 5654 5649 5647 5642 5637 5636 5644 5639 5646 5653 5658 5658 5654 5653 5660 5662 5662 5665 5679 5684 5686 5686 5691
5613 5608 5609 5608 5604 5604 5604 5605 5605 5602 5602 5603 5605 5607 5613 5615 5632 5644 5649 5651 5647 5646 5643 5640 5634 5630 5630 5633 5636 5633 5641 5646 5651 5651 5649 5651 5647 5651 5656 5666 5672 5674 5677 5677 5678
5608 5603 5600 5598 5595 5593 5594 5593 5594 5597 5593 5595 5597 5595 5600 5610 5643 5638 5639 5637 5637 5635 5634 5631 5630 5630 5629 5628 5627 5637 5635 5638 5641 5643 5644 5644 5644 5639 5654 5664 5659 5660 5661 5667 5669
5601 5597 5595 5589 5584 5583 5581 5582 5581 5583 5585 5585 5586 5588 5589 5620 5634 5636 5630 5628 5630 5628 5625 5624 5624 5622 5621 5619 5625 5626 5620 5623 5630 5635 5632 5638 5633 5636 5647 5647 5648 5650 5652 5656 5660
5591 5590 5583 5578 5573 5571 5568 5567 5567 5572 5574 5572 5574 5577 5588 5618 5621 5621 5626 5624 5620 5616 5617 5617 5615 5610 5610 5612 5609 5608 5607 5604 5620 5623 5627 5624 5620 5638 5641 5639 5636 5643 5647 5650 5654
5582 5577 5572 5569 5558 5557 5552 5551 5555 5558 5560 5559 5561 5564 5583 5610 5610 5623 5619 5619 5618 5611 5605 5606 5603 5597 5598 5589 5581 5585 5581 5589 5597 5613 5611 5613 5611 5620 5628 5627 5622 5627 5633 5639 5646
5573 5567 5559 5554 5542 5542 5537 5539 5540 5543 5546 5545 5549 5548 5582 5602 5612 5617 5612 5611 5610 5605 5596 5588 5581 5580 5569 5570 5559 5569 5570 5572 5577 5593 5596 5595 5601 5603 5610 5611 5615 5618 5622 5630 5636
5567 5558 5547 5539 5529 5524 5520 5525 5523 5527 5528 5550 5555 5564 5579 5592 5598 5602 5603 5598 5599 5595 5580 5577 5566 5566 5570 5563 5568 5570 5567 5563 5566 5577 5580 5591 5600 5598 5602 5604 5605 5612 5616 5620 5623
5551 5540 5533 5524 5513 5511 5509 5507 5522 5517 5521 5540 5547 5559 5565 5568 5575 5585 5593 5586 5580 5572 5571 5563 5557 5567 5563 5558 5556 5556 5556 5554 5562 5571 5565 5576 5598 5600 5600 5606 5606 5608 5608 5607 5608
5535 5525 5517 5506 5497 5495 5497 5500 5511 5506 5499 5536 5545 5558 5561 5557 5561 5568 5577 5573 5570 5560 5556 5549 5563 5564 5556 5551 5547 5550 5548 5551 5554 5563 5566 5569 5594 5601 5606 5605 5606 5602 5592 5586 5586
5517 5510 5500 5493 5483 5487 5485 5497 5499 5489 5483 5532 5541 5556 5559 5553 5556 5566 5569 5566 5559 5552 5543 5545 5556 5553 5547 5546 5545 5543 5552 5555 5552 5548 5541 5562 5565 5591 5597 5597 5598 5584 5572 5568 5571
5509 5498 5489 5485 5477 5482 5485 5490 5486 5479 5453 5540 5541 5558 5558 5554 5567 5562 5563 5559 5548 5546 5543 5542 5548 5545 5542 5547 5547 5547 5556 5552 5551 5541 5543 5539 5537 5596 5593 5585 5572 5566 5562 5556 5555
5500 5489 5479 5471 5470 5475 5474 5475 5470 5461 5482 5530 5539 5540 5540 5545 5554 5555 5551 5553 5548 5539 5540 5539 5546 5545 5545 5549 5547 5550 5548 5544 5536 5533 5530 5545 5534 5582 5574 5568 5566 5563 5554 5544 5539
5487 5478 5470 5466 5463 5464 5462 5455 5448 5455 5521 5520 5529 5532 5534 5532 5533 5537 5532 5522 5526 5522 5524 5529 5530 5533 5536 5537 5537 5531 5531 5522 5516 5508 5537 5541 5527 5565 5564 5561 5557 5552 5537 5526 5520
5470 5465 5458 5457 5454 5455 5453 5448 5446 5493 5510 5521 5527 5522 5517 5519 5519 5522 5513 5504 5509 5517 5506 5512 5510 5517 5523 5521 5519 5519 5523 5509 5514 5518 5517 5538 5529 5541 5547 5544 5542 5535 5521 5511 5503
5459 5447 5445 5446 5449 5450 5450 5442 5468 5492 5504 5510 5513 5507 5503 5506 5511 5509 5495 5491 5495 5499 5508 5496 5501 5508 5510 5513 5512 5512 5503 5508 5501 5507 5503 5524 5533 5537 5535 5532 5531 5520 5507 5499 5491
5443 5434 5434 5443 5441 5440 5438 5457 5473 5484 5486 5494 5500 5495 5490 5489 5494 5497 5490 5483 5487 5489 5495 5484 5484 5489 5498 5503 5500 5495 5495 5468 5466 5478 5497 5518 5518 5517 5517 5515 5519 5501 5491 5484 5481
5435 5429 5427 5434 5435 5433 5432 5449 5466 5473 5478 5477 5478 5474 5477 5478 5481 5481 5475 5474 5482 5480 5482 5481 5476 5468 5486 5487 5477 5466 5465 5470 5469 5459 5464 5492 5501 5507 5497 5493 5492 5484 5473 5469 5464
5430 5427 5427 5428 5421 5424 5432 5449 5458 5459 5469 5462 5466 5468 5468 5467 5469 5470 5467 5469 5475 5475 5469 5468 5454 5447 5459 5468 5467 5461 5456 5453 5401 5429 5440 5438 5475 5492 5484 5475 5473 5465 5459 5458 5457
5419 5416 5412 5416 5417 5417 5431 5442 5444 5449 5450 5453 5455 5458 5461 5458 5455 5459 5460 5460 5466 5462 5454 5455 5436 5439 5445 5446 5445 5441 5446 5440 5424 5425 5429 5405 5456 5477 5473 5466 5457 5450 5443 5442 5447
5408 5400 5399 5408 5412 5422 5429 5435 5436 5442 5438 5439 5445 5450 5452 5450 5448 5450 5451 5448 5451 5453 5454 5448 5439 5440 5432 5435 5426 5423 5426 5420 5402 5363 5416 5431 5444 5464 5461 5451 5443 5442 5432 5430 5437
5404 5401 5411 5401 5408 5419 5429 5435 5432 5431 5435 5439 5436 5438 5443 5439 5439 5435 5436 5435 5439 5444 5431 5427 5418 5423 5424 5419 5418 5415 5414 5413 5404 5407 5396 5424 5423 5439 5435 5431 5426 5428 5425 5425 5430
5401 5409 5407 5409 5418 5420 5425 5429 5428 5428 5433 5432 5430 5430 5430 5429 5432 5426 5427 5424 5424 5425 5410 5405 5390 5404 5410 5409 5401 5406 5414 5412 5409 5411 5411 5420 5426 5430 5416 5414 5416 5415 5416 5417 5421
5398 5405 5413 5405 5411 5413 5413 5426 5427 5428 5424 5428 5425 5421 5423 5422 5424 5424 5420 5417 5416 5408 5387 5388 5381 5379 5370 5402 5397 5396 5412 5409 5418 5422 5420 5410 5432 5413 5407 5404 5404 5405 5410 5407 5408